Location: The Saddle
(36.8333°N, 80.3417°W)
Time: 15:28:56
(UTC-05:00)

A-11 Canister half - Pass Details

Date: 12 December 2023
Orbit: 1512 x 1687 km, 47.2° (Epoch: 29 February)

Event Time Altitude Azimuth Distance (km) Brightness Sun altitude
Rises 21:40:09 0° 227° (SW) 4,652 11.8 -54.0°
Reaches altitude 10° 21:43:09 10° 225° (SW) 3,683 11.2 -54.6°
Enters shadow 21:43:28 11° 225° (SW) 3,579 11.1 -54.7°
Maximum altitude 21:52:25 76° 142° (SE) 1,598 - -56.4°
Drops below altitude 10° 22:02:02 10° 59° (ENE) 3,815 - -58.3°
Sets 22:05:12 0° 58° (ENE) 4,826 - -58.9°
